Location: Tierra del Sol
(32.6128°N, 116.3319°W)
Time: 07:23:19
(UTC-07:00)

N. Korean satellite - Pass Details

Date: 11 October 2017
Orbit: 459 x 517 km, 97.2° (Epoch: 19 October)

Event Time Altitude Azimuth Distance (km) Brightness Sun altitude
Rises 19:05:21 0° 175° (S) 2,571 10.2 -11.0°
Reaches altitude 10° 19:07:27 10° 179° (S) 1,683 9.3 -11.5°
Maximum altitude 19:11:01 59° 259° (W) 569 7.2 -12.2°
Drops below altitude 10° 19:14:33 10° 340° (NNW) 1,662 9.5 -13.0°
Sets 19:16:38 0° 345° (NNW) 2,535 10.4 -13.4°
